Location: Praha
(50.0830°N, 14.4670°E)
Time: 01:54:42
(UTC+02:00)

Tiangong - Visible Passes

Search period start: 11 June 2023 00:00
Search period end: 21 June 2023 00:00
Orbit: 386 x 390 km, 41.5° (Epoch: 10 June)

Date Brightness Start Highest point End Pass type
(mag) Time Alt. Az. Time Alt. Az. Time Alt. Az.
11 Jun -0.2 02:52:07 16° SSE 02:52:07 16° SSE 02:53:28 10° SE visible
12 Jun -0.2 03:28:55 14° SSW 03:28:57 14° SSW 03:30:43 10° SSE visible
16 Jun -0.3 22:34:23 10° SSW 22:36:09 14° SSE 22:36:19 14° SSE visible
17 Jun -0.3 23:11:28 10° SW 23:12:56 16° SSW 23:12:56 16° SSW visible
18 Jun -0.4 22:12:54 10° SW 22:15:00 16° S 22:16:58 11° SE visible
18 Jun 0.5 23:49:12 10° SW 23:49:13 10° SW 23:49:13 10° SW visible
19 Jun -0.4 22:50:18 10° SW 22:52:29 17° S 22:53:01 17° S visible
20 Jun 0.3 23:28:22 10° SW 23:28:55 12° SW 23:28:55 12° SW visible
